Weather History for Moab, UT

Change the Weather History Date:

Monday, January 21, 2013

  Actual Average Record
Temperature  
Mean Temperature 6 °F 28 °F  
Max Temperature 20 °F 39 °F 60 °F (1953)
Min Temperature -9 °F 17 °F -14 °F (1930)
Degree Days  
Heating Degree Days 59 37  
Month to date heating degree days 1323 820  
Since 1 July heating degree days 3588 3217  
Cooling Degree Days 0 0  
Month to date cooling degree days 0 0  
Year to date cooling degree days 0 0  
Moisture  
Dew Point 0 °F    
Average Humidity 88    
Maximum Humidity 100    
Minimum Humidity 76    
Precipitation  
Precipitation 0.00 in 0.02 in 0.40 in (1974)
Month to date precipitation 0.01 0.47  
Year to date precipitation 0.01 0.47  
Sea Level Pressure  
Sea Level Pressure 30.58 in    
Wind  
Wind Speed 2 mph (WNW)    
Max Wind Speed 13 mph    
Max Gust Speed 15 mph    
Visibility 8 miles    
Events      
T = Trace of Precipitation, MM = Missing Value Source: NWS Daily Summary

Daily Weather History Graph

Daily Weather History Graph

Search for Another Location

Airport:

Trip Planner

Search our weather history database for the weather conditions in past years. The results will help you decide how hot, cold, wet, or windy it might be!

Date:

Astronomy

Jan. 21, 2013 Rise Set
Actual Time 7:32 AM MST 5:28 PM MST
Civil Twilight 7:04 AM MST 5:57 PM MST
Nautical Twilight 6:31 AM MST 6:29 PM MST
Astronomical Twilight 6:00 AM MST 7:01 PM MST
Moon 1:10 PM MST 3:03 AM MST
Length of Visible Light 10h 53m
Length of Day
9h 55m
Waxing Gibbous, 75% of the Moon is Illuminated
Jan 21
Waxing Gibbous
Jan 26
Full
Feb 3
Last Quarter
Feb 10
New
Feb 17
First Quarter

Hourly Weather History & Observations

Time (MST) Temp. Windchill Dew Point Humidity Pressure Visibility Wind Dir Wind Speed Gust Speed Precip Events Conditions
12:53 AM -0.9 °F -8.9 °F -2.9 °F 91% 30.61 in 10.0 mi SSW 3.5 mph - N/A   Clear
1:53 AM -5.1 °F - -6.0 °F 96% 30.62 in 10.0 mi Calm Calm - N/A   Clear
2:53 AM -4.0 °F - -8.0 °F 83% 30.62 in 8.0 mi Calm Calm - N/A   Clear
3:53 AM -0.0 °F - -2.0 °F 91% 30.59 in 10.0 mi Calm Calm - N/A   Clear
4:13 AM -2.2 °F -10.4 °F -4.0 °F 92% 30.37 in 3.0 mi WNW 3.5 mph - N/A   Scattered Clouds
4:34 AM -2.2 °F -10.4 °F -5.8 °F 85% 30.37 in 9.0 mi SW 3.5 mph - N/A   Mostly Cloudy
4:43 AM -4.0 °F - -7.6 °F 85% 30.38 in 10.0 mi Calm Calm - N/A   Partly Cloudy
4:53 AM -2.0 °F - -7.1 °F 79% 30.61 in 10.0 mi Calm Calm - N/A   Partly Cloudy
5:33 AM -0.4 °F -8.3 °F -2.2 °F 92% 30.39 in 1.5 mi NNW 3.5 mph - N/A   Partly Cloudy
5:37 AM 3.2 °F - -0.4 °F 85% 30.39 in 0.8 mi Calm Calm - N/A   Mist
5:50 AM -9.4 °F -24.3 °F -11.2 °F 92% 30.39 in 2.0 mi West 6.9 mph - N/A   Mostly Cloudy
5:53 AM -7.1 °F -21.4 °F -11.9 °F 79% 30.66 in 8.0 mi West 6.9 mph - N/A   Scattered Clouds
6:53 AM -4.0 °F - -7.1 °F 87% 30.68 in 7.0 mi Calm Calm - N/A   Clear
7:53 AM -6.0 °F - -9.9 °F 83% 30.68 in 10.0 mi Calm Calm - N/A   Clear
8:53 AM -0.0 °F - -0.9 °F 96% 30.69 in 6.0 mi Calm Calm - N/A   Clear
9:53 AM 3.9 °F - 3.9 °F 100% 30.71 in 10.0 mi Calm Calm - N/A   Clear
10:53 AM 12.0 °F - 10.0 °F 92% 30.69 in 10.0 mi Calm Calm - N/A   Clear
11:53 AM 14.0 °F 3.9 °F 10.0 °F 84% 30.68 in 10.0 mi NW 6.9 mph - N/A   Clear
12:53 PM 14.0 °F 0.5 °F 10.0 °F 84% 30.63 in 10.0 mi NNW 11.5 mph - N/A   Clear
1:53 PM 16.0 °F 2.3 °F 10.9 °F 81% 30.62 in 10.0 mi NNW 12.7 mph - N/A   Clear
2:53 PM 18.0 °F - 12.9 °F 81% 30.59 in 10.0 mi Calm Calm - N/A   Clear
3:53 PM 17.1 °F 11.7 °F 12.0 °F 81% 30.58 in 10.0 mi NNW 3.5 mph - N/A   Clear
4:53 PM 16.0 °F 8.8 °F 10.9 °F 81% 30.58 in 10.0 mi WNW 4.6 mph - N/A   Clear
5:53 PM 12.0 °F - 7.0 °F 80% 30.61 in 10.0 mi Calm Calm - N/A   Clear
6:53 PM 7.0 °F - 3.0 °F 84% 30.62 in 10.0 mi Calm Calm - N/A   Clear
7:53 PM 5.0 °F - 3.0 °F 92% 30.63 in 10.0 mi Calm Calm - N/A   Clear
8:53 PM 3.9 °F -3.4 °F 1.0 °F 88% 30.63 in 10.0 mi North 3.5 mph - N/A   Clear
9:53 PM 3.9 °F - -0.0 °F 84% 30.62 in 10.0 mi Calm Calm - N/A   Clear
10:53 PM 5.0 °F - 1.0 °F 84% 30.59 in 10.0 mi Calm Calm - N/A   Clear
11:53 PM -0.9 °F - -5.1 °F 83% 30.61 in 10.0 mi Calm Calm - N/A   Clear